CW1102 Weather Reports


Display with metric or nautical units.
time (UTC)temp
F
wind
direction
speed
MPH
gust
MPH
rain 1hr
in
rain 24hr
in
rain mn
in
humidity
%
barometer
mb
20260507004556 72 275 10.0 0.0 0.00 0.00 0.00 43 1011.3
20260507003101 73 315 9.0 12.0 0.00 0.00 0.00 42 1011.2
20260507001556 74 304 7.0 19.0 0.00 0.00 0.00 40 1011.2
20260507000054 73 293 10.0 20.0 0.00 0.00 0.00 39 1011.0
20260506234604 74 309 11.0 20.0 0.00 0.00 0.00 36 1010.9
20260506233056 75 309 7.0 17.0 0.00 0.00 0.00 37 1010.8
20260506231555 76 292 7.0 13.0 0.00 0.00 0.00 36 1010.6
20260506230049 77 292 6.0 14.0 0.00 0.00 0.00 32 1010.8
20260506224548 76 323 11.0 19.0 0.00 0.00 0.00 32 1010.9
20260506223046 77 255 8.0 15.0 0.00 0.00 0.00 32 1011.2
20260506221546 77 300 6.0 18.0 0.00 0.00 0.00 32 1011.3
20260506220046 76 276 10.0 18.0 0.00 0.00 0.00 33 1011.3
20260506214545 76 271 8.0 16.0 0.00 0.00 0.00 35 1011.2
20260506213042 76 323 9.0 20.0 0.00 0.00 0.00 35 1011.4
20260506211538 76 302 7.0 18.0 0.00 0.00 0.00 35 1011.5
20260506210037 76 325 10.0 19.0 0.00 0.00 0.00 36 1011.7
20260506204634 76 286 5.0 16.0 0.00 0.00 0.00 37 1011.7
20260506203039 75 289 9.0 16.0 0.00 0.00 0.00 36 1011.9
20260506201537 75 299 7.0 13.0 0.00 0.00 0.00 37 1011.9
20260506200030 75 298 7.0 12.0 0.00 0.00 0.00 37 1012.0
20260506194525 74 306 7.0 18.0 0.00 0.00 0.00 38 1012.2
20260506193023 74 262 8.0 15.0 0.00 0.00 0.00 38 1012.7
20260506191522 73 262 8.0 16.0 0.00 0.00 0.00 37 1012.9
20260506190019 73 290 7.0 17.0 0.00 0.00 0.00 39 1013.1
20260506184516 73 63 8.0 17.0 0.00 0.00 0.00 38 1013.1
20260506183014 73 240 6.0 13.0 0.00 0.00 0.00 40 1013.3
20260506181512 72 309 7.0 16.0 0.00 0.00 0.00 38 1013.2
20260506180013 71 243 6.0 12.0 0.00 0.00 0.00 43 1013.1
20260506174504 68 287 2.0 5.0 0.00 0.00 0.00 49 1013.3
20260506173002 65 143 1.0 5.0 0.00 0.00 0.00 54 1013.4
20260506171615 63 120 1.0 4.0 0.00 0.00 0.00 54 1013.7
20260506170056 61 5 0.0 5.0 0.00 0.00 0.00 56 1013.9
20260506164600 59 143 1.0 4.0 0.00 0.00 0.00 59 1014.0
20260506163104 59 57 2.0 5.0 0.00 0.00 0.00 58 1014.1
20260506161610 57 75 1.0 4.0 0.00 0.00 0.00 59 1014.2
20260506160047 56 13 0.0 2.0 0.00 0.00 0.00 59 1014.6
20260506154550 56 150 0.0 1.0 0.00 0.00 0.00 59 1014.8
20260506153047 54 290 0.0 2.0 0.00 0.00 0.00 63 1014.8
20260506151542 52 82 0.0 2.0 0.00 0.00 0.00 65 1015.0
20260506150041 50 326 0.0 1.0 0.00 0.00 0.00 70 1015.0
20260506144539 48 42 1.0 2.0 0.00 0.00 0.00 71 1015.1
20260506141532 44 86 0.0 2.0 0.00 0.00 0.00 79 1015.2
20260506140031 42 93 0.0 2.0 0.00 0.00 0.00 81 1015.3
20260506134529 40 71 0.0 2.0 0.00 0.00 0.00 84 1015.3
20260506133028 40 79 0.0 1.0 0.00 0.00 0.00 84 1015.2
20260506131532 39 101 0.0 0.0 0.00 0.00 0.00 86 1015.2
20260506130025 37 136 0.0 0.0 0.00 0.00 0.00 90 1015.1
20260506124524 36 136 0.0 0.0 0.00 0.00 0.00 91 1015.0
20260506123022 36 136 0.0 0.0 0.00 0.00 0.00 90 1014.9
20260506121520 36 141 0.0 1.0 0.00 0.00 0.00 91 1014.7
20260506120019 37 108 0.0 1.0 0.00 0.00 0.00 90 1014.6
20260506114516 37 108 0.0 1.0 0.00 0.00 0.00 90 1014.5
20260506113012 38 127 0.0 1.0 0.00 0.00 0.00 89 1014.5
20260506111510 38 94 0.0 0.0 0.00 0.00 0.00 88 1014.4
20260506110009 38 141 0.0 0.0 0.00 0.00 0.00 88 1014.2
20260506104506 38 155 0.0 0.0 0.00 0.00 0.00 89 1014.1
20260506103004 39 82 0.0 0.0 0.00 0.00 0.00 88 1013.9
20260506101504 39 82 0.0 1.0 0.00 0.00 0.00 88 1013.7
20260506100119 39 113 0.0 0.0 0.00 0.00 0.00 88 1013.6
20260506094557 40 113 0.0 0.0 0.00 0.00 0.00 87 1013.5
20260506093054 40 113 0.0 1.0 0.00 0.00 0.00 87 1013.5
20260506091553 40 17 0.0 0.0 0.00 0.00 0.00 88 1013.3
20260506090050 40 17 0.0 1.0 0.00 0.00 0.00 86 1013.3
20260506084610 41 112 0.0 1.0 0.00 0.00 0.00 85 1013.1
20260506083044 42 120 0.0 2.0 0.00 0.00 0.00 84 1013.0
20260506073044 45 177 0.0 0.0 0.00 0.00 0.00 81 1012.6
20260506071530 45 205 0.0 2.0 0.00 0.00 0.00 80 1012.5
20260506061520 49 143 0.0 1.0 0.00 0.00 0.00 75 1011.8
20260506044538 54 134 1.0 6.0 0.00 0.00 0.00 64 1011.2
20260506043011 55 128 0.0 1.0 0.00 0.00 0.00 62 1011.0
20260506041509 56 63 0.0 2.0 0.00 0.00 0.00 62 1010.7
20260506040006 59 309 1.0 3.0 0.00 0.00 0.00 55 1010.5
20260506034513 60 268 0.0 2.0 0.00 0.00 0.00 54 1010.2
20260506033007 62 276 0.0 2.0 0.00 0.00 0.00 48 1010.0
20260506031506 63 250 2.0 3.0 0.00 0.00 0.00 44 1009.7
20260506030004 65 278 0.0 3.0 0.00 0.00 0.00 44 1009.5
20260506024504 68 46 3.0 8.0 0.00 0.00 0.00 36 1009.2
20260506023004 69 49 3.0 9.0 0.00 0.00 0.00 35 1009.0
20260506021503 70 345 5.0 13.0 0.00 0.00 0.00 36 1008.8
20260506014502 71 327 6.0 16.0 0.00 0.00 0.00 36 1008.5
20260506013100 72 72 4.0 10.0 0.00 0.00 0.00 37 1008.4
20260506011625 72 15 4.0 15.0 0.00 0.00 0.00 35 1008.4
20260506010200 72 60 6.0 12.0 0.00 0.00 0.00 35 1008.2